Back to catalog

CZ-6A DEB

AliveSSO
NORAD 54388·DEBRIS·🇨🇳 China

Launched Nov 11, 2022 from Taiyuan Satellite Launch Center

Loading…

Next Passes (next 24 hours)

TLE

FreshSource: Space-Track

Epoch: Sep 14, 2026, 09:47 UTC

1 54388U 22151DL  26257.40812364  .00000762  00000-0  47427-3 0  9991
2 54388  98.8864 244.0253 0087959 138.5991 222.1887 14.05969916196159

Track CZ-6A DEB in real time with AllMySat

Download on the App Store